OK1FET-5 Weather Reports


Display with metric or nautical units.
time (UTC)temp
F
wind
direction
speed
MPH
gust
MPH
rain 1hr
in
rain 24hr
in
rain mn
in
humidity
%
barometer
mb
20260502212953 61 159 3.0 3.0 0.00 0.00 0.00 29 1018.7
20260502212459 62 135 3.0 5.0 0.00 0.00 0.00 29 1018.7
20260502212004 62 145 3.0 4.0 0.00 0.00 0.00 28 1018.7
20260502211510 62 154 3.0 4.0 0.00 0.00 0.00 28 1018.8
20260502211015 62 165 3.0 4.0 0.00 0.00 0.00 28 1018.7
20260502210521 62 153 2.0 3.0 0.00 0.00 0.00 28 1018.7
20260502210026 62 141 2.0 3.0 0.00 0.00 0.00 27 1018.7
20260502205532 62 165 2.0 3.0 0.00 0.00 0.00 27 1018.7
20260502205037 62 176 2.0 3.0 0.00 0.00 0.00 27 1018.7
20260502204543 63 174 2.0 3.0 0.00 0.00 0.00 27 1018.8
20260502204048 63 154 2.0 3.0 0.00 0.00 0.00 27 1018.8
20260502203553 64 138 3.0 4.0 0.00 0.00 0.00 27 1018.8
20260502203059 64 125 4.0 5.0 0.00 0.00 0.00 27 1018.8
20260502202110 64 132 3.0 4.0 0.00 0.00 0.00 27 1018.9
20260502201615 64 138 3.0 4.0 0.00 0.00 0.00 27 1018.9
20260502201120 64 135 3.0 4.0 0.00 0.00 0.00 27 1018.9
20260502200626 64 135 3.0 4.0 0.00 0.00 0.00 27 1018.9
20260502200131 65 126 3.0 4.0 0.00 0.00 0.00 26 1018.9
20260502195636 65 135 3.0 4.0 0.00 0.00 0.00 26 1018.9
20260502195142 65 125 3.0 4.0 0.00 0.00 0.00 25 1018.8
20260502194647 66 99 4.0 5.0 0.00 0.00 0.00 25 1018.9
20260502194152 66 97 4.0 5.0 0.00 0.00 0.00 25 1018.9
20260502193658 66 94 5.0 5.0 0.00 0.00 0.00 25 1018.9
20260502193203 67 96 5.0 6.0 0.00 0.00 0.00 25 1018.8
20260502192709 67 96 5.0 7.0 0.00 0.00 0.00 25 1018.8
20260502192213 67 99 6.0 7.0 0.00 0.00 0.00 25 1018.8
20260502191719 67 90 6.0 7.0 0.00 0.00 0.00 25 1018.8
20260502191224 68 96 6.0 8.0 0.00 0.00 0.00 25 1018.7
20260502190729 68 90 6.0 8.0 0.00 0.00 0.00 25 1018.8
20260502185739 68 89 7.0 8.0 0.00 0.00 0.00 25 1018.7
20260502185245 68 93 7.0 8.0 0.00 0.00 0.00 25 1018.7
20260502184750 69 90 7.0 8.0 0.00 0.00 0.00 25 1018.7
20260502184255 69 96 7.0 8.0 0.00 0.00 0.00 25 1018.8
20260502183800 69 93 7.0 8.0 0.00 0.00 0.00 25 1018.7
20260502183305 69 90 8.0 8.0 0.00 0.00 0.00 25 1018.7
20260502182810 69 93 7.0 8.0 0.00 0.00 0.00 25 1018.6
20260502182316 69 96 7.0 9.0 0.00 0.00 0.00 25 1018.7
20260502181821 69 90 7.0 9.0 0.00 0.00 0.00 25 1018.7
20260502181326 70 93 7.0 8.0 0.00 0.00 0.00 25 1018.7
20260502180831 70 90 7.0 8.0 0.00 0.00 0.00 25 1018.7
20260502180336 70 93 6.0 8.0 0.00 0.00 0.00 25 1018.7
20260502170436 73 106 5.0 7.0 0.00 0.00 0.00 24 1019.1
20260502164000 74 111 5.0 7.0 0.00 0.00 0.00 23 1019.2
20260502163505 74 126 5.0 8.0 0.00 0.00 0.00 23 1019.3
20260502162514 75 126 6.0 7.0 0.00 0.00 0.00 23 1019.4
20260502162019 75 131 5.0 6.0 0.00 0.00 0.00 23 1019.5
20260502161028 75 141 6.0 8.0 0.00 0.00 0.00 23 1019.7
20260502160533 75 138 6.0 8.0 0.00 0.00 0.00 24 1019.7
20260502152113 77 140 5.0 7.0 0.00 0.00 0.00 24 1020.3
20260502151617 76 156 5.0 7.0 0.00 0.00 0.00 24 1020.4
20260502151122 76 134 7.0 9.0 0.00 0.00 0.00 24 1020.5
20260502150626 77 134 7.0 8.0 0.00 0.00 0.00 24 1020.5
20260502150131 77 145 6.0 8.0 0.00 0.00 0.00 23 1020.6
20260502130312 79 93 5.0 8.0 0.00 0.00 0.00 23 1022.2
20260502123338 80 108 4.0 8.0 0.00 0.00 0.00 25 1022.5
20260502122842 80 146 3.0 7.0 0.00 0.00 0.00 26 1022.7
20260502122346 79 135 3.0 7.0 0.00 0.00 0.00 23 1022.7
20260502121850 78 132 5.0 8.0 0.00 0.00 0.00 24 1022.8
20260502121354 78 142 7.0 9.0 0.00 0.00 0.00 22 1022.8
20260502120858 79 192 5.0 9.0 0.00 0.00 0.00 25 1023.0
20260502120403 78 180 7.0 10.0 0.00 0.00 0.00 27 1023.0
20260502115907 78 158 7.0 9.0 0.00 0.00 0.00 26 1023.1
20260502115411 79 200 4.0 9.0 0.00 0.00 0.00 28 1023.2
20260502114420 76 142 7.0 10.0 0.00 0.00 0.00 26 1023.4
20260502113924 76 127 6.0 10.0 0.00 0.00 0.00 27 1023.3
20260502113429 77 104 6.0 8.0 0.00 0.00 0.00 26 1023.4
20260502112933 76 133 7.0 12.0 0.00 0.00 0.00 25 1023.5
20260502112437 77 142 6.0 12.0 0.00 0.00 0.00 28 1023.6
20260502111446 77 141 4.0 8.0 0.00 0.00 0.00 27 1023.6
20260502110456 76 147 8.0 10.0 0.00 0.00 0.00 27 1023.9
20260502105959 77 152 6.0 9.0 0.00 0.00 0.00 26 1023.9
20260502105503 78 153 6.0 8.0 0.00 0.00 0.00 31 1024.0
20260502105008 79 73 3.0 7.0 0.00 0.00 0.00 30 1024.0
20260502104512 76 111 6.0 8.0 0.00 0.00 0.00 28 1024.0
20260502104016 77 139 7.0 9.0 0.00 0.00 0.00 27 1024.1
20260502103521 79 129 3.0 8.0 0.00 0.00 0.00 29 1024.2
20260502103025 78 73 3.0 5.0 0.00 0.00 0.00 32 1024.2
20260502102529 76 149 4.0 7.0 0.00 0.00 0.00 32 1024.4
20260502102034 75 159 8.0 9.0 0.00 0.00 0.00 29 1024.4
20260502101538 75 145 7.0 10.0 0.00 0.00 0.00 28 1024.5
20260502101043 74 177 7.0 11.0 0.00 0.00 0.00 31 1024.6
20260502100547 74 142 7.0 10.0 0.00 0.00 0.00 31 1024.7
20260502091136 73 174 4.0 5.0 0.00 0.00 0.00 38 1025.2
20260502090145 73 160 3.0 7.0 0.00 0.00 0.00 39 1025.3
20260502071332 62 141 4.0 5.0 0.00 0.00 0.00 42 1026.0
20260502070837 62 119 4.0 5.0 0.00 0.00 0.00 43 1026.0
20260502070342 62 111 4.0 5.0 0.00 0.00 0.00 41 1026.0
20260502065847 62 115 4.0 5.0 0.00 0.00 0.00 41 1026.0
20260502065353 62 100 4.0 5.0 0.00 0.00 0.00 41 1026.0
20260502064858 63 90 3.0 4.0 0.00 0.00 0.00 40 1026.1
20260502064404 62 93 3.0 4.0 0.00 0.00 0.00 40 1026.1
20260502063908 61 128 3.0 4.0 0.00 0.00 0.00 41 1026.1
20260502063414 61 147 4.0 5.0 0.00 0.00 0.00 42 1026.1
20260502062919 60 135 3.0 4.0 0.00 0.00 0.00 42 1026.1
20260502062424 61 138 3.0 4.0 0.00 0.00 0.00 41 1026.1
20260502061930 61 144 3.0 3.0 0.00 0.00 0.00 42 1026.2
20260502061435 61 167 2.0 3.0 0.00 0.00 0.00 41 1026.1
20260502060940 61 153 2.0 4.0 0.00 0.00 0.00 41 1026.1
20260502060445 62 174 2.0 3.0 0.00 0.00 0.00 40 1026.2
20260502055950 62 167 1.0 2.0 0.00 0.00 0.00 39 1026.2
20260502055455 62 152 3.0 4.0 0.00 0.00 0.00 39 1026.1
20260502055000 64 294 1.0 2.0 0.00 0.00 0.00 36 1026.1
20260502054505 64 315 1.0 2.0 0.00 0.00 0.00 36 1026.1
20260502054011 63 318 1.0 2.0 0.00 0.00 0.00 37 1026.1
20260502053516 62 191 1.0 2.0 0.00 0.00 0.00 39 1026.1
20260502053021 61 196 1.0 3.0 0.00 0.00 0.00 39 1026.1
20260502052526 62 288 1.0 3.0 0.00 0.00 0.00 37 1026.1
20260502052032 60 202 1.0 2.0 0.00 0.00 0.00 38 1026.1
20260502051537 60 249 1.0 3.0 0.00 0.00 0.00 37 1026.0
20260502050548 59 180 1.0 2.0 0.00 0.00 0.00 38 1026.0
20260502045558 58 177 1.0 2.0 0.00 0.00 0.00 37 1025.9
20260502045104 58 180 0.0 1.0 0.00 0.00 0.00 37 1025.9
20260502044609 56 180 0.0 1.0 0.00 0.00 0.00 38 1026.0
20260502044115 55 180 0.0 1.0 0.00 0.00 0.00 39 1025.9
20260502043621 53 170 1.0 2.0 0.00 0.00 0.00 40 1025.9
20260502043126 53 179 1.0 2.0 0.00 0.00 0.00 40 1025.8
20260502042633 53 180 0.0 1.0 0.00 0.00 0.00 39 1025.8
20260502042138 52 180 0.0 0.0 0.00 0.00 0.00 39 1025.8
20260502041644 52 180 0.0 0.0 0.00 0.00 0.00 39 1025.8
20260502041150 51 217 0.0 1.0 0.00 0.00 0.00 40 1025.8
20260502040655 50 311 1.0 2.0 0.00 0.00 0.00 41 1025.8
20260502040201 49 135 0.0 1.0 0.00 0.00 0.00 42 1025.9
20260502035707 48 135 1.0 1.0 0.00 0.00 0.00 43 1025.9
20260502035213 47 100 1.0 1.0 0.00 0.00 0.00 44 1025.9
20260502034719 47 90 1.0 2.0 0.00 0.00 0.00 45 1025.9
20260502034225 46 84 1.0 2.0 0.00 0.00 0.00 46 1025.9
20260502033731 46 90 1.0 3.0 0.00 0.00 0.00 46 1025.9
20260502033237 46 90 1.0 2.0 0.00 0.00 0.00 46 1025.9
20260502032743 46 77 1.0 2.0 0.00 0.00 0.00 46 1025.9
20260502032249 46 332 1.0 2.0 0.00 0.00 0.00 46 1026.0
20260502031755 46 324 1.0 3.0 0.00 0.00 0.00 46 1026.0
20260502031301 46 353 1.0 2.0 0.00 0.00 0.00 45 1026.0
20260502030807 46 18 2.0 3.0 0.00 0.00 0.00 45 1026.0
20260502030313 46 357 1.0 2.0 0.00 0.00 0.00 46 1026.0
20260502025819 46 353 3.0 5.0 0.00 0.00 0.00 46 1025.9
20260502025325 47 342 5.0 6.0 0.00 0.00 0.00 45 1025.9
20260502024831 47 350 6.0 7.0 0.00 0.00 0.00 44 1026.0
20260502024337 47 322 7.0 8.0 0.00 0.00 0.00 43 1025.9
20260502023843 48 330 7.0 8.0 0.00 0.00 0.00 43 1025.9
20260502023349 48 321 6.0 7.0 0.00 0.00 0.00 43 1025.9
20260502022854 48 327 5.0 5.0 0.00 0.00 0.00 44 1026.0
20260502022400 48 327 4.0 5.0 0.00 0.00 0.00 43 1026.0
20260502021906 47 318 3.0 4.0 0.00 0.00 0.00 43 1026.1
20260502021412 48 315 2.0 3.0 0.00 0.00 0.00 44 1026.1
20260502020918 48 249 1.0 2.0 0.00 0.00 0.00 42 1026.1
20260502020424 49 239 0.0 0.0 0.00 0.00 0.00 41 1026.1
20260502015929 50 325 1.0 3.0 0.00 0.00 0.00 41 1026.1
20260502015435 51 16 1.0 2.0 0.00 0.00 0.00 40 1026.1
20260502014941 52 16 2.0 3.0 0.00 0.00 0.00 40 1026.1
20260502014447 52 33 3.0 4.0 0.00 0.00 0.00 40 1026.1
20260502013953 51 33 3.0 4.0 0.00 0.00 0.00 40 1026.1
20260502013459 51 33 3.0 3.0 0.00 0.00 0.00 40 1026.1
20260502013004 51 42 3.0 3.0 0.00 0.00 0.00 41 1026.2
20260502012016 49 18 2.0 3.0 0.00 0.00 0.00 42 1026.3
20260502011522 48 338 4.0 5.0 0.00 0.00 0.00 41 1026.3
20260502011028 49 324 5.0 6.0 0.00 0.00 0.00 42 1026.2
20260502010534 49 334 1.0 3.0 0.00 0.00 0.00 40 1026.4
20260502010039 50 344 2.0 3.0 0.00 0.00 0.00 40 1026.4
20260502005545 50 328 1.0 2.0 0.00 0.00 0.00 40 1026.4
20260502005051 50 45 1.0 2.0 0.00 0.00 0.00 40 1026.4
20260502004103 51 322 1.0 3.0 0.00 0.00 0.00 39 1026.3
20260502003609 51 337 1.0 2.0 0.00 0.00 0.00 39 1026.4
20260502003115 51 335 2.0 3.0 0.00 0.00 0.00 38 1026.4
20260502002620 52 258 1.0 2.0 0.00 0.00 0.00 38 1026.4
20260502002126 52 239 0.0 0.0 0.00 0.00 0.00 38 1026.4
20260502001632 53 0 0.0 0.0 0.00 0.00 0.00 38 1026.4
20260502001138 53 347 0.0 1.0 0.00 0.00 0.00 38 1026.4
20260502000643 53 318 2.0 3.0 0.00 0.00 0.00 38 1026.4
20260502000149 53 331 3.0 3.0 0.00 0.00 0.00 37 1026.4
20260501235655 52 331 3.0 4.0 0.00 0.00 0.00 38 1026.4
20260501235201 52 348 1.0 2.0 0.00 0.00 0.00 39 1026.5
20260501234706 52 318 3.0 4.0 0.00 0.00 0.00 39 1026.6
20260501234213 52 315 3.0 3.0 0.00 0.00 0.00 40 1026.5
20260501233718 52 312 1.0 3.0 0.00 0.00 0.00 39 1026.5
20260501233224 51 309 0.0 0.0 0.00 0.00 0.00 38 1026.6
20260501232729 52 305 1.0 2.0 0.00 0.00 0.00 38 1026.6
20260501231741 53 77 1.0 2.0 0.00 0.00 0.00 37 1026.7
20260501231247 53 28 2.0 4.0 0.00 0.00 0.00 37 1026.7
20260501230752 53 324 5.0 6.0 0.00 0.00 0.00 37 1026.5
20260501230258 54 318 5.0 6.0 0.00 0.00 0.00 39 1026.5
20260501225804 54 319 4.0 5.0 0.00 0.00 0.00 37 1026.5
20260501225309 54 341 5.0 5.0 0.00 0.00 0.00 38 1026.5
20260501224815 53 327 5.0 6.0 0.00 0.00 0.00 37 1026.5
20260501224321 53 322 6.0 7.0 0.00 0.00 0.00 37 1026.5
20260501223826 53 327 6.0 7.0 0.00 0.00 0.00 36 1026.5
20260501223332 54 339 6.0 7.0 0.00 0.00 0.00 36 1026.5
20260501222838 55 325 5.0 7.0 0.00 0.00 0.00 36 1026.5
20260501222343 55 321 4.0 5.0 0.00 0.00 0.00 36 1026.6
20260501221849 55 338 3.0 3.0 0.00 0.00 0.00 36 1026.5
20260501221354 55 336 4.0 6.0 0.00 0.00 0.00 36 1026.6
20260501220406 55 327 6.0 7.0 0.00 0.00 0.00 35 1026.6
20260501215912 55 322 6.0 7.0 0.00 0.00 0.00 35 1026.6
20260501215417 55 331 6.0 6.0 0.00 0.00 0.00 35 1026.6
20260501214923 55 334 6.0 7.0 0.00 0.00 0.00 35 1026.6
20260501214429 55 336 6.0 8.0 0.00 0.00 0.00 35 1026.5
20260501213934 54 342 6.0 7.0 0.00 0.00 0.00 35 1026.5
20260501213440 54 331 6.0 7.0 0.00 0.00 0.00 35 1026.5